[[{"header":{"parameterUnit":"m.s-1","parameterCategory":1,"la1":30.2991,"la2":30.254,"lo1":-89.0895,"lo2":-89.0444,"dy":0.0017,"dx":0.0017,"nx":28,"ny":28,"refTime":"2024-08-12T09:00:00:Z","depth":0,"parameterNumber":2,"parameterNumberName":"U-component_of_WINDS"},"data":[0,0,0,0,0,0,0,0,0,0,0,0,0,0,0,0,0,0,0,0,0,0,0,0,0,0,0,0,0,0,0,0,0,0,0,0,0,0,0,0,0,0,0,0,0,0,0,0,0,0,0,0,0,0,0,0,0,0,0.5517,0.5518,0,0.5582,0.5583,0.5583,0.5536,0.5534,0.5532,0.553,0.56,0.5604,0.5608,0,0,0,0,0,0,0,0,0,0,0,0,0,0.5357,0.536,0.5517,0.5518,0.5518,0.5582,0.5583,0.5584,0.5536,0.5534,0.5531,0.5529,0.5599,0.5604,0.5608,0,0,0,0,0,0,0,0,0,0,0,0,0,0.5425,0.5361,0.5517,0.5502,0.5502,0.5582,0.5583,0.5584,0.5537,0.5534,0.5531,0.5528,0.5598,0.5603,0.5609,0.5707,0,0,0.5626,0.5629,0,0,0,0,0,0,0,0,0.5421,0.5431,0.5504,0.5504,0.5503,0.5548,0.5552,0.5625,0.5538,0.5524,0.553,0.5526,0.5586,0.5592,0.5611,0.571,0.5713,0.5627,0.563,0.5633,0.5634,0,0,0,0,0,0,0,0.5416,0.5428,0.5543,0.5505,0.5504,0.5495,0.5501,0.5566,0.5572,0.5525,0.5521,0.553,0.5585,0.5606,0.5613,0.5715,0.5627,0.5632,0.5635,0.5638,0.5902,0.5905,0,0,0,0,0,0,0.5412,0.5424,0.5541,0.5545,0.5453,0.55,0.5507,0.5537,0.5571,0.5573,0.5532,0.5527,0.5598,0.5606,0.5615,0.5735,0.5633,0.5638,0.5641,0.5898,0.5902,0.5906,0,0,0,0,0,0,0.5409,0.5423,0.5538,0.5483,0.5497,0.5506,0.554,0.5539,0.556,0.5576,0.5578,0.5552,0.5595,0.5607,0.5685,0.5737,0.5641,0.5646,0.5894,0.5899,0.5904,0.5975,0,0,0,0,0,0,0.5405,0.5422,0.5458,0.5484,0.55,0.5606,0.5543,0.5543,0.557,0.5564,0.5596,0.5598,0.5594,0.5677,0.5691,0.5743,0.565,0.5889,0.5896,0.5903,0.5968,0.5982,0.5994,0,0,0,0,0,0.5399,0.5475,0.546,0.5475,0.5545,0.5609,0.5618,0.5611,0.5574,0.5612,0.5623,0.5597,0.5728,0.5685,0.5701,0.5755,0.5886,0.5894,0.5902,0.5962,0.5979,0.5993,0,0,0,0,0,0,0.5456,0.5479,0.5462,0.5549,0.5577,0.5601,0.5647,0.5628,0.5668,0.5661,0.5652,0.5659,0.5742,0.5756,0.5708,0.5854,0.5802,0.5813,0.5842,0.5858,0.5871,0.5867,0.5655,0,0,0,0,0,0.5478,0.5526,0.5544,0.5619,0.5634,0.5639,0.5666,0.5658,0.5687,0.5699,0.5715,0.5746,0.5795,0.5827,0.5872,0.5969,0.5977,0.6015,0.6027,0.6038,0.6049,0.6104,0.6122,0.5933,0.5933,0.5933,0,0,0.5525,0.5544,0.5575,0.5631,0.5652,0.5704,0.5649,0.5705,0.5745,0.5708,0.5784,0.5797,0.5831,0.592,0.596,0.5934,0.6103,0.6048,0.6056,0.6062,0.6115,0.6132,0.6148,0.5938,0.5937,0.5936,0,0,0.5638,0.5656,0.5722,0.5744,0.5777,0.5779,0.5795,0.5822,0.583,0.5905,0.5879,0.5927,0.6009,0.6036,0.606,0.6186,0.6165,0.6201,0.6269,0.6323,0.6338,0.6352,0.6399,0.6416,0.6211,0.6211,0.6211,0,0.5694,0.5769,0.5758,0.5818,0.5845,0.5813,0.5882,0.5904,0.595,0.5971,0.5941,0.6046,0.6066,0.6163,0.6194,0.6213,0.6234,0.6198,0.6337,0.635,0.6362,0.6408,0.6425,0.6215,0.6215,0.6214,0.6214,0,0.5837,0.589,0.594,0.5985,0.6017,0.6081,0.6082,0.6116,0.6106,0.6113,0.6192,0.6215,0.6266,0.6288,0.6278,0.6384,0.6367,0.6337,0.6285,0.6385,0.6428,0.6445,0.6222,0.622,0.6219,0.6218,0,0,0.5988,0.6027,0.6045,0.6067,0.6101,0.6143,0.6206,0.6255,0.6287,0.632,0.6375,0.6447,0.642,0.6448,0.6441,0.6488,0.6591,0.6453,0.6454,0.648,0.6712,0.6736,0.6756,0.6576,0.6579,0.6582,0.671,0,0.6104,0.6213,0.6207,0.631,0.6361,0.6333,0.6389,0.6417,0.6426,0.6472,0.6481,0.6534,0.6493,0.651,0.6555,0.6568,0.6637,0.6559,0.663,0.6633,0.6624,0.6778,0.6803,0.6923,0.6726,0.6729,0.6731,0,0.6255,0.6294,0.6402,0.6432,0.6453,0.6503,0.6549,0.6592,0.6625,0.6628,0.666,0.6646,0.6713,0.6658,0.6752,0.6698,0.6727,0.6738,0.6743,0.6751,0.6689,0.6793,0.696,0.698,0.6757,0.6755,0.6753,0,0.6358,0.6437,0.6513,0.6531,0.6566,0.6603,0.662,0.6649,0.668,0.6721,0.6741,0.6789,0.6817,0.6855,0.6856,0.6815,0.6952,0.6896,0.6959,0.696,0.6991,0.6989,0.7168,0.7005,0.7005,0.7005,0.7004,0,0.649,0.6559,0.6559,0.6606,0.6683,0.6675,0.6752,0.6765,0.6792,0.6843,0.6822,0.687,0.6867,0.6917,0.6918,0.6998,0.7009,0.7016,0.7016,0.7019,0.7019,0.7039,0.7032,0.701,0.7008,0.7008,0.7007,0,0.6618,0.6621,0.6702,0.6729,0.6738,0.6794,0.6818,0.6864,0.687,0.6935,0.695,0.6962,0.702,0.7024,0.7091,0.7092,0.7189,0.7179,0.7178,0.7177,0.7241,0.7236,0.7441,0.7469,0.7286,0.7288,0.7289,0,0.6703,0.6755,0.6788,0.682,0.6839,0.6891,0.6922,0.6918,0.6952,0.6995,0.7036,0.7092,0.7136,0.7231,0.7247,0.7299,0.7291,0.736,0.7299,0.7302,0.7296,0.7294,0.73,0.7372,0.7374,0.7376,0.7377,0,0.6856,0.6855,0.6901,0.6948,0.6986,0.7023,0.7058,0.7086,0.7086,0.7126,0.7185,0.7219,0.7288,0.7345,0.7396,0.7416,0.7398,0.7396,0.7414,0.7419,0.7417,0.7422,0.7213,0.7391,0.739,0.7389,0.7388,0.7388,0.6967,0.7013,0.7044,0.7096,0.7122,0.7155,0.7201,0.7213,0.7262,0.7317,0.7311,0.7378,0.7412,0.7479,0.7503,0.7556,0.7533,0.7558,0.7565,0.7572,0.758,0.7407,0.7565,0.7564,0.7564,0.7564,0.7563,0,0.7121,0.7139,0.7187,0.7237,0.7279,0.7257,0.7295,0.7332,0.739,0.7423,0.7467,0.7537,0.7592,0.7613,0.7668,0.7707,0.77,0.7721,0.772,0.7725,0.7596,0.7576,0.7726,0.7726,0.7726,0.7726,0.7726,0.7726,0.7206,0.7283,0.7287,0.7378,0.7396,0.746,0.7484,0.7516,0.7542,0.762,0.7666,0.7679,0.7708,0.7765,0.7816,0.7821,0.7844,0.7869,0.7871,0.775,0.7734,0.7718,0.77,0.7873,0.7874,0.7996,0.7998,0.7998]},{"header":{"parameterUnit":"m.s-1","parameterCategory":1,"la1":30.2991,"la2":30.254,"lo1":-89.0895,"lo2":-89.0444,"dy":0.0017,"dx":0.0017,"nx":28,"ny":28,"refTime":"2024-08-12T09:00:00:Z","depth":0,"parameterNumber":3,"parameterNumberName":"V-component_of_WINDS"},"data":[0,0,0,0,0,0,0,0,0,0,0,0,0,0,0,0,0,0,0,0,0,0,0,0,0,0,0,0,0,0,0,0,0,0,0,0,0,0,0,0,0,0,0,0,0,0,0,0,0,0,0,0,0,0,0,0,0,0,-2.3523,-2.3524,0,-2.3625,-2.3627,-2.3628,-2.3651,-2.3651,-2.365,-2.3649,-2.375,-2.3753,-2.3756,0,0,0,0,0,0,0,0,0,0,0,0,0,-2.3344,-2.3348,-2.3523,-2.3524,-2.3526,-2.3625,-2.3627,-2.3628,-2.3652,-2.3651,-2.365,-2.3649,-2.3749,-2.3753,-2.3757,0,0,0,0,0,0,0,0,0,0,0,0,0,-2.3432,-2.3349,-2.3523,-2.3549,-2.3553,-2.3625,-2.3627,-2.3628,-2.3652,-2.3651,-2.365,-2.3649,-2.3747,-2.3752,-2.3757,-2.3809,0,0,-2.3772,-2.3775,0,0,0,0,0,0,0,0,-2.3427,-2.3438,-2.3544,-2.3548,-2.3552,-2.3625,-2.3601,-2.3689,-2.3652,-2.3614,-2.3649,-2.3648,-2.3709,-2.3717,-2.3738,-2.3813,-2.3818,-2.3773,-2.3776,-2.3778,-2.3779,0,0,0,0,0,0,0,-2.3421,-2.3434,-2.3563,-2.3546,-2.355,-2.3555,-2.3566,-2.3617,-2.3666,-2.3617,-2.3619,-2.3631,-2.371,-2.3733,-2.3741,-2.3819,-2.3773,-2.3777,-2.378,-2.3782,-2.3942,-2.3943,0,0,0,0,0,0,-2.341,-2.3429,-2.356,-2.3566,-2.3485,-2.3559,-2.3572,-2.3602,-2.3665,-2.3674,-2.3632,-2.3632,-2.3725,-2.3735,-2.3744,-2.3809,-2.3778,-2.3783,-2.3785,-2.3941,-2.3942,-2.3944,0,0,0,0,0,0,-2.3407,-2.3422,-2.3556,-2.3498,-2.3516,-2.3563,-2.3597,-2.3605,-2.3628,-2.3677,-2.3685,-2.3647,-2.3725,-2.3737,-2.3793,-2.3813,-2.3785,-2.3789,-2.3939,-2.3941,-2.3943,-2.3938,0,0,0,0,0,0,-2.3401,-2.342,-2.3441,-2.3499,-2.3519,-2.3604,-2.3599,-2.3608,-2.3637,-2.3638,-2.3692,-2.3701,-2.3725,-2.3785,-2.3798,-2.3819,-2.3793,-2.3938,-2.394,-2.3943,-2.3937,-2.394,-2.3942,0,0,0,0,0,-2.3395,-2.3435,-2.3442,-2.3458,-2.3546,-2.3605,-2.3616,-2.3645,-2.3638,-2.3659,-2.3691,-2.3699,-2.3809,-2.3791,-2.3805,-2.3828,-2.3937,-2.394,-2.3942,-2.3936,-2.3939,-2.3942,0,0,0,0,0,0,-2.3376,-2.3443,-2.3452,-2.3511,-2.3553,-2.3609,-2.3636,-2.3648,-2.369,-2.3689,-2.3722,-2.3734,-2.3787,-2.3813,-2.3792,-2.3881,-2.3872,-2.3878,-2.3862,-2.3866,-2.3869,-2.3861,-2.3797,0,0,0,0,0,-2.338,-2.3423,-2.3478,-2.3526,-2.3546,-2.3588,-2.3614,-2.3633,-2.3676,-2.3693,-2.3729,-2.377,-2.3813,-2.3841,-2.3884,-2.3941,-2.3953,-2.3964,-2.3967,-2.3969,-2.3973,-2.4005,-2.401,-2.3953,-2.3953,-2.3953,0,0,-2.3386,-2.3428,-2.3453,-2.3523,-2.3557,-2.3601,-2.3602,-2.3648,-2.368,-2.37,-2.3755,-2.3783,-2.383,-2.3887,-2.3913,-2.391,-2.3992,-2.3972,-2.3974,-2.3977,-2.4008,-2.4014,-2.4018,-2.3955,-2.3955,-2.3954,0,0,-2.342,-2.3456,-2.35,-2.3534,-2.3587,-2.3614,-2.3625,-2.368,-2.3699,-2.3756,-2.3772,-2.381,-2.3885,-2.3918,-2.3945,-2.3993,-2.4002,-2.4006,-2.402,-2.405,-2.4055,-2.4059,-2.4076,-2.4081,-2.401,-2.401,-2.401,0,-2.342,-2.3488,-2.352,-2.3566,-2.3596,-2.3618,-2.3662,-2.3694,-2.3757,-2.3777,-2.3773,-2.3868,-2.3901,-2.3966,-2.3978,-2.3999,-2.4011,-2.3999,-2.4052,-2.4056,-2.4061,-2.4077,-2.4083,-2.401,-2.401,-2.401,-2.401,0,-2.3486,-2.3533,-2.3561,-2.3624,-2.3657,-2.3702,-2.374,-2.377,-2.3786,-2.3814,-2.387,-2.3912,-2.3964,-2.3981,-2.3996,-2.4048,-2.4044,-2.4046,-2.4037,-2.4066,-2.4081,-2.4088,-2.4011,-2.4011,-2.4011,-2.4011,0,0,-2.3509,-2.359,-2.36,-2.3629,-2.3689,-2.3725,-2.3771,-2.3823,-2.3848,-2.3891,-2.3929,-2.3993,-2.3995,-2.4025,-2.4045,-2.4072,-2.4107,-2.4071,-2.4072,-2.4075,-2.4166,-2.4164,-2.4171,-2.4114,-2.4116,-2.4117,-2.4162,0,-2.355,-2.3633,-2.3664,-2.3732,-2.3775,-2.3797,-2.3837,-2.3877,-2.3905,-2.3945,-2.3974,-2.4019,-2.4019,-2.4037,-2.4065,-2.4097,-2.4126,-2.4094,-2.4149,-2.415,-2.4135,-2.4179,-2.4177,-2.4217,-2.4168,-2.417,-2.417,0,-2.3608,-2.3653,-2.3726,-2.3782,-2.3801,-2.3836,-2.3887,-2.3925,-2.3972,-2.399,-2.4025,-2.4043,-2.409,-2.408,-2.4145,-2.4123,-2.4148,-2.4167,-2.4169,-2.4174,-2.4161,-2.4184,-2.4231,-2.4237,-2.418,-2.418,-2.4179,0,-2.3616,-2.3696,-2.375,-2.3774,-2.384,-2.3865,-2.3893,-2.3939,-2.3969,-2.4013,-2.4033,-2.4081,-2.4108,-2.4144,-2.4175,-2.4165,-2.4237,-2.423,-2.4253,-2.4252,-2.4266,-2.4264,-2.4316,-2.4283,-2.4283,-2.4283,-2.4283,0,-2.3658,-2.3701,-2.3755,-2.3788,-2.3837,-2.3872,-2.3919,-2.3949,-2.399,-2.4028,-2.4051,-2.4086,-2.4125,-2.4165,-2.4189,-2.4239,-2.4251,-2.4266,-2.4272,-2.4264,-2.4262,-2.4279,-2.4277,-2.4285,-2.4284,-2.4284,-2.4284,0,-2.3675,-2.3713,-2.3773,-2.3832,-2.3848,-2.3882,-2.3931,-2.3964,-2.3993,-2.4041,-2.4055,-2.41,-2.4148,-2.4183,-2.4245,-2.4262,-2.4315,-2.4321,-2.43,-2.4303,-2.4324,-2.4321,-2.4387,-2.4398,-2.4359,-2.4359,-2.4359,0,-2.3698,-2.3732,-2.3796,-2.3824,-2.3853,-2.3898,-2.3929,-2.3965,-2.3997,-2.4053,-2.4078,-2.4129,-2.4171,-2.4248,-2.4285,-2.4333,-2.4339,-2.436,-2.4346,-2.4337,-2.4339,-2.4336,-2.4339,-2.4361,-2.4361,-2.4361,-2.4361,0,-2.3735,-2.3753,-2.3798,-2.385,-2.3887,-2.3929,-2.3971,-2.3993,-2.4036,-2.407,-2.4121,-2.4154,-2.4219,-2.4268,-2.432,-2.4348,-2.4362,-2.4366,-2.4373,-2.4365,-2.4351,-2.4358,-2.4304,-2.4363,-2.4363,-2.4363,-2.4363,-2.4363,-2.3756,-2.3788,-2.3837,-2.3887,-2.3923,-2.3962,-2.3996,-2.403,-2.4074,-2.413,-2.4149,-2.4201,-2.4248,-2.4319,-2.4348,-2.4389,-2.4388,-2.4399,-2.4402,-2.4403,-2.4403,-2.4345,-2.4398,-2.4398,-2.4398,-2.4398,-2.4398,0,-2.3794,-2.3827,-2.3873,-2.3932,-2.3971,-2.3983,-2.4031,-2.4062,-2.4108,-2.4151,-2.4193,-2.4252,-2.43,-2.4342,-2.4393,-2.4417,-2.4425,-2.4429,-2.4427,-2.4433,-2.4401,-2.4389,-2.4422,-2.4422,-2.4422,-2.4422,-2.4422,-2.4422,-2.3818,-2.3872,-2.3895,-2.3968,-2.4001,-2.4054,-2.408,-2.4116,-2.4151,-2.4216,-2.4257,-2.4285,-2.4327,-2.4381,-2.4426,-2.4437,-2.4454,-2.4457,-2.4469,-2.4438,-2.4435,-2.4432,-2.4421,-2.446,-2.446,-2.4497,-2.4498,-2.4498]}]]